Location: Nairn
(57.5833°N, 3.8667°W)
Time: 23:34:15
(UTC+00:00)

Vanguard 2 Rocket - Visible Passes

Search period start: 05 December 2020 00:00
Search period end: 15 December 2020 00:00
Orbit: 553 x 3326 km, 32.9° (Epoch: 05 December)

Date Brightness Start Highest point End Pass type
(mag) Time Alt. Az. Time Alt. Az. Time Alt. Az.
05 Dec 11.0 04:51:45 10° S 05:01:52 17° SE 05:12:34 10° ESE visible
05 Dec 10.9 07:00:27 10° SW 07:15:18 29° SSE 07:29:53 10° ESE visible
06 Dec 11.1 03:55:59 10° SSE 04:01:50 12° SE 04:08:00 10° ESE visible
06 Dec 10.9 06:00:59 10° SSW 06:14:33 26° SSE 06:28:46 10° ESE visible
07 Dec 10.8 05:02:19 10° S 05:14:01 22° SSE 05:26:54 10° ESE visible
07 Dec 10.8 07:12:41 10° SW 07:27:47 31° S 07:43:02 10° ESE visible
08 Dec 10.8 04:04:47 10° S 04:13:50 17° SE 04:23:58 10° ESE visible
08 Dec 10.7 06:12:56 10° SSW 06:26:57 29° SSE 06:42:05 10° ESE visible
09 Dec 10.8 03:09:57 10° SE 03:14:01 11° SE 03:18:22 10° ESE visible
09 Dec 10.6 05:13:51 10° SSW 05:26:18 25° SSE 05:40:32 10° ESE visible
09 Dec 10.8 07:25:18 10° SW 07:40:19 31° S 07:55:51 10° SE visible
10 Dec 10.6 04:15:35 10° S 04:25:59 21° SSE 04:38:13 10° ESE visible
10 Dec 10.6 06:25:22 10° SW 06:39:25 30° S 06:55:05 10° ESE visible
11 Dec 10.6 03:18:30 10° SSE 03:26:02 15° SE 03:34:45 10° ESE visible
11 Dec 10.5 05:26:01 10° SSW 05:38:42 28° SSE 05:53:43 10° ESE visible
11 Dec 10.7 07:38:14 10° WSW 07:52:51 30° S 08:08:20 10° SE visible
12 Dec 10.4 04:27:18 10° SSW 04:38:17 24° SSE 04:51:44 10° ESE visible
12 Dec 10.5 06:38:09 10° SW 06:51:58 31° S 07:07:44 10° SE visible
13 Dec 10.3 03:30:41 12° S 03:38:13 19° SE 03:49:01 10° ESE visible
13 Dec 10.4 05:38:36 10° SW 05:51:13 29° S 06:06:33 10° ESE visible
13 Dec 10.7 07:51:28 10° WSW 08:05:22 28° SSW 08:20:25 10° SE visible
14 Dec 10.4 02:34:41 12° SSE 02:38:32 13° SE 02:44:58 10° ESE visible
14 Dec 10.2 04:40:29 12° SSW 04:50:43 26° SSE 05:04:49 10° ESE visible
14 Dec 10.5 06:51:15 10° WSW 07:04:33 29° S 07:20:02 10° SE visible
